www.pogodaiklimat.ru

Погода и климат >> Архив погоды >> Россия >> Забайкальский край >> Забайкальск


ПОГОДА в Забайкальске

  • Прогноз погоды в Забайкальске
  • Монитор погоды в Забайкальске
  • Климат города

АРХИВ ПОГОДЫ в Забайкальске

Время (UTC), дата Ветер
(напр.,м/с)
 
Видим.   Явления Облачность Т
(С)
Тd
(С)
f
(%)
Тe
(С)
Тes
(С)
Комфортность P
(гПа)
Po
(гПа)
Тmin
(С)
Tmax
(С)
R
(мм)
R24
(мм)
S
(см)
18 18.05 СЗ 12-16
{21}
н/о н/о +5.0 -3.3 55 -1 -1 1009.6 928.0
21 18.05 СЗ 7
{16}
50 км 8/3 600 м
[Sc Ci sp]
+3.1 -3.1 64 -3 -3 1013.6 931.1
00 19.05 СЗ 11-14
{15}
50 км 5/0
[Ci sp]
+7.7 -2.8 47 +3 +3 1014.5 933.2 +2.8
03 19.05 СЗ 10
{16}
50 км 7 баллов +11.7 -2.9 36 +8 +9 1015.0 934.7
06 19.05 СЗ 9
{14}
50 км 7 баллов +13.5 -6.1 25 +11 +12 1014.5 934.7
09 19.05 СЗ 9
{15}
50 км 9 баллов +12.4 -11.3 18 +10 +10 1016.3 936.0
12 19.05 СЗ 5
{12}
50 км 10/10 600 м
[Cb cap]
+10.9 -8.3 25 +9 +9 1017.4 936.7 +14.9
15 19.05 СЗ 5 20 км 10/10 600 м
[Cb cap]
+9.3 -8.8 27 +7 +7 1019.9 938.6
18 19.05 СЗ 5 20 км 10/10 600 м
[Cb cap]
+7.3 -8.1 33 +4 +4 1021.1 939.2
21 19.05 С 2 50 км 8/8 600 м
[Cb cap]
+5.3 -7.4 39 +4 +4 1023.0 940.3
00 20.05 С 6
{9}
50 км 10/10 600 м
[Cb cap]
+7.5 -5.0 41 +4 +4 1023.9 941.8 +5.0
03 20.05 С 4 50 км 10/10 600 м
[Cb cap]
+9.4 -6.0 33 +7 +7 1023.0 941.5
06 20.05 СЗ 5
{10}
50 км 9 баллов +11.7 -9.3 22 +10 +11 1022.2 941.3
09 20.05 СЗ 7
{11}
5 баллов +10.5 -12.6 18 -4 -8 1021.7 938.7
12 20.05 СЗ 5
{11}
50 км 8/4 1000 м
[Sc Ci sp]
+7.0 -14.0 21 +4 +4 1022.3 940.1 +12.2
15 20.05 С 4 20 км 4/0
[Ci sp]
+2.6 -11.5 35 -1 -1 1024.9 941.3
18 20.05 С 6 20 км 3/0
[Ci sp]
+1.2 -11.2 39 -4 -4 1025.5 941.4
21 20.05 С 3 50 км 6/0
[Ci sp]
+1.0 -11.1 40 -3 -2 1026.4 942.2
00 21.05 ЮВ 4
{7}
50 км 3/0
[Ci sp]
+10.0 -10.7 22 +8 +12 1024.4 942.9 -0.1
03 21.05 З 3 50 км ясно +13.0 -11.4 17 +12 +26 опасность
простуды
1021.9 941.4
06 21.05 Ю 3 50 км ясно +15.2 -11.2 15 +15 +27 опасность
простуды
1019.0 939.3
09 21.05 Ю 1 50 км ясно +16.0 -10.4 15 +17 +23 1016.6 937.3
12 21.05 ЮЗ 4
{8}
50 км ясно +10.5 -11.5 20 +9 +9 1019.8 938.7 +16.3
15 21.05 ЮЗ 5 20 км ясно +7.7 -12.6 22 +5 +5 1019.5 937.8
18 21.05 С 1 20 км ясно +1.5 -12.5 34 +1 +1 1020.4 936.8
21 21.05 С 3 50 км ясно -1.7 -11.5 47 -6 -6 1020.9 936.4
00 22.05 ЮЗ 7-10
{10}
50 км ясно +14.9 -10.0 17 +13 +15 1015.0 935.5 -2.7
03 22.05 ЮЗ 7
{13}
50 км 1 балл +17.8 -10.1 14 +17 +21 1013.3 934.7
06 22.05 ЮЗ 8
{14}
50 км 2 балла +20.4 -8.9 13 +19 +21 1009.7 932.0
09 22.05 З 13
{20}
50 км 9 баллов +17.6 -7.5 17 +16 +16 1008.9 930.7
12 22.05 СЗ 9-12
{20}
50 км 8/6 600 м
[Cb cap Ci sp]
+15.1 -7.0 21 +13 +13 1008.7 929.8 +21.5 0.0
15 22.05 С 2
{12}
20 км 3/0
[Ci sp]
+6.7 -8.4 33 +5 +5 1013.0 931.6
18 22.05 СЗ 7
{10}
20 км 2 балла +7.9 -10.4 26 +4 +4 1014.7 933.3
21 22.05 СЗ 6
{10}
50 км 9/6 600 м
[Cb cap Ci sp]
+7.2 -9.5 29 +4 +4 1013.0 931.7
00 23.05 СЗ 9-11
{12}
50 км 10/0
[Ac lent Cs]
+10.3 -9.7 23 +7 +7 1012.7 932.2 +5.2
03 23.05 СЗ 9
{14}
50 км 10 баллов +13.0 -5.1 28 +10 +10 1011.7 932.0
06 23.05 СЗ 11
{16}
50 км 9 баллов +14.2 -1.4 34 +12 +12 1009.9 930.7
09 23.05 СЗ 12
{18}
50 км 7 баллов +14.9 -0.4 35 +12 +12 1009.7 930.7
12 23.05 СЗ 3
{17}
50 км 8/8 600 м
[Cb cap]
+11.5 -3.1 36 +10 +10 1009.7 929.9 +15.7
15 23.05 СЗ 2 20 км 8/6 600 м
[Cb cap Ci sp]
+4.7 -4.5 51 +3 +3 1012.9 930.9
18 23.05 С 2 20 км 4/0
[Ci sp]
+0.3 -6.7 59 -3 -3 1013.9 930.5
21 23.05 штиль 0 50 км 3/0
[Ci sp]
+1.8 -4.8 62 +1 +2 1012.6 929.8
00 24.05 СЗ 9-12
{12}
50 км 3/0
[Ac lent]
+14.9 +3.2 45 +13 +13 1008.7 929.9 -1.2
03 24.05 С 9
{13}
50 км 7 баллов +18.6 -0.8 27 +18 +18 1008.7 930.7
06 24.05 С 8
{13}
50 км 9 баллов +18.3 -1.5 26 +17 +18 1008.8 930.7
09 24.05 С 7
{12}
50 км 9 баллов +17.0 +2.2 37 +16 +16 1010.5 932.0
12 24.05 СВ 2
{11}
50 км 9/9 600 м
[Cb cap]
+14.5 +0.1 37 +14 +14 1011.3 932.2 +19.5
15 24.05 Ю 2 20 км 3/3 1000 м
[Sc]
+10.8 -7.3 27 +10 +10 1014.5 934.1
18 24.05 С 2 20 км ясно +4.4 -7.0 43 +2 +2 1016.8 934.4
21 24.05 С 1 50 км ясно +3.0 -5.9 52 +2 +2 1017.5 934.7
00 25.05 Ю 6
{7}
50 км 9/0
[Ci sp]
+15.6 -6.5 21 +14 +17 1013.3 934.2 +2.9
03 25.05 Ю 5 50 км 9/0
[Ci sp]
+21.8 -0.2 23 +21 +28 комфорт 1009.1 932.0
09 25.05 ЮЗ 5
{14}
50 км 9 баллов +27.9 +2.1 19 +26 +26 жарко 1003.2 928.0
12 25.05 Ю 3
{14}
50 км 9/5 1000 м
[Sc Ci sp]
+21.9 +1.8 26 +22 +22 комфорт 1004.1 927.4 +28.4

 

Местоположение метеостанции Забайкальск (Забайкальский край, Россия): широта 49.63 долгота 117.30 высота над уровнем моря 694 м.

В архиве по умолчанию представлена погода в Забайкальске за последнюю неделю. Архивные данные за месяц целиком и за предыдущие месяцы, начиная с января 2011 года, Вы можете получить, выбрав интересующий диапазон дат из раскрывающегося списка и нажав кнопку "Ввод!".

Внимание! Время в таблицах - всемирное. Для получения местного времени необходимо прибавить поправку, которая в Забайкальске равна 9 ч.

Смотрите также архив погоды в соседних городах и на ближайших метеорологических станциях:

Погода в Кайластуе (Забайкальский край, Россия) (75 км)
Погода в Борзе (Забайкальский край, Россия) (103 км)
Погода в Xin Barag Youqi (Китай) (113 км)
Погода в Соловьевске (Забайкальский край, Россия) (119 км)
Погода в Приаргунске (Забайкальский край, Россия) (149 км)
Погода в Александровском Заводе (Забайкальский край, Россия) (150 км)
Погода в Hailar (Китай) (183 км)
Погода в Оловянной (Забайкальский край, Россия) (195 км)
Погода в Dashbalbar (Монголия) (209 км)
Погода в Балее (Забайкальский край, Россия) (218 км)

Пояснения к столбцам:

Ветер - указаны скорость ветра в м/с - средняя за 10 мин, порывы в срок и между сроками (в фигурных скобках) и направление, откуда дует ветер: С - северный, СВ - северо-восточный, В - восточный, ЮВ - юго-восточный, Ю - южный, ЮЗ - юго-западный, З - западный, СЗ - северо-западный.
Видимость - горизонтальная дальность видимости в метрах или километрах. При видимости от 1 до 10 км при отсутствии осадков обычно наблюдается дымка, при ухудшении видимости до 1 км и менее - туман. В сухую погоду видимость может ухудшаться дымом, пылью или мглою.
Явления - указаны атмосферные явления, наблюдавшиеся в срок или в последний час перед сроком; фигурными скобками обозначены явления, наблюдавшиеся между сроками (за 1-3 часа до срока); квадратными скобками обозначены град или гололедные отложения с указанием их диаметра в мм.
Облачность - указаны через наклонную черту общая и нижняя облачность в баллах и высота нижней границы облаков в метрах; квадратными скобками обозначены формы облаков: Ci - перистые, Cs - перисто-слоистые, Cc - перисто-кучевые, Ac - высококучевые, As - высокослоистые, Sc - слоисто-кучевые, Ns - слоисто-дождевые, Cu - кучевые, Cb - кучево-дождевые. Подробнее классификацию облаков см. в Атласе облаков (PDF).
T - Температура воздуха - температура, измеренная на высоте 2 м над землей.
Td - Температура точки росы - температура, при понижении до которой содержащийся в воздухе водяной пар достигнет насыщения.
f - Относительная влажность воздуха - влажноcть воздуха, измеренная на высоте 2 м над землей.
Te - Эффективная температура - температура, которую ощущает одетый по сезону человек в тени. Характеристика душности погоды. При расчете учитывается влияние влажности воздуха и скорости ветра на теплоощущения человека.
Tes - Эффективная температура на солнце - температура, которую ощущает человек, с поправкой на солнечный нагрев. Характеристика знойности погоды. Зависит от высоты солнца над горизонтом, облачности и скорости ветра. Ночью, в пасмурную погоду, а также при ветре 12 м/с и более поправка равна нулю.
P - Атмосферное давление - приведенное к уровню моря атмосферное давление.
Po - Атмосферное давление - измеренное на уровне метеостанции атмосферное давление.
Tmin - Минимальная температура - минимум температуры воздуха на высоте 2 м над землей.
Tmax - Максимальная температура - максимум температуры воздуха на высоте 2 м над землей.
R - Количество осадков - Количество выпавших осадков за период времени, мм. При наведении курсора мыши на число - период времени, за который выпало указанное количество осадков.
R24 - Количество осадков - Количество выпавших осадков за 24 часа, мм.
S - Снежный покров - Высота снежного покрова, см. При наведении курсора мыши на число - состояние снежного покрова и степень покрытия местности в баллах.